Location: Unspecified
(0.0000°N, 0.0000°E)
Time: 23:54:37
(UTC+00:00)

Traac - Pass Details

Date: 22 December 2025
Orbit: 951 x 1102 km, 32.4° (Epoch: 19 January)

Event Time Altitude Azimuth Distance (km) Brightness Sun altitude
Exits shadow 05:20:47 - 266° (W) 3,229 10.2 -8.7°
Reaches altitude 10° 05:22:10 10° 259° (WSW) 2,871 10.0 -8.3°
Maximum altitude 05:27:22 22° 210° (SSW) 2,163 9.8 -7.2°
Drops below altitude 10° 05:32:41 10° 162° (SSE) 2,936 11.1 -5.9°
Sets 05:36:12 0° 148° (SSE) 3,905 12.2 -5.1°
